Location: Blue Sky Observatory
(43.1153°N, 70.9036°W)
Time: 01:07:44
(UTC-04:00)

Amateur Radio Satellites - All Passes

Search period start: 25 June 2016 00:37
Search period end: 26 June 2016 00:37
Location: Blue Sky Observatory, 43.1153°N, 70.9036°W

Satellite Date Start Highest point End Downlink Frequencies (MHz)
Time Altitude Azimuth
YUBILEINY 25 Jun 00:41:46 00:50:39 87° 264° (W) 00:59:31 435.215
Cosmos 2504 25 Jun 00:41:49 00:49:52 36° 69° (ENE) 00:57:40 435.465 / 435.565
50 SAT 25 Jun 00:45:59 00:47:34 12° 269° (W) 00:49:09 437.505
ANTELSAT 25 Jun 00:46:30 00:48:33 13° 299° (WNW) 00:50:39 437.575/2403.000
AO-85 25 Jun 00:48:53 00:52:18 17° 324° (NW) 00:55:37 145.980
VELOX 1 25 Jun 00:49:09 00:52:03 17° 268° (W) 00:54:57 145.980
ITUPSAT 1 25 Jun 00:51:08 00:53:49 15° 60° (ENE) 00:56:29 437.325
BEESAT 25 Jun 00:52:49 00:55:38 16° 61° (ENE) 00:58:27 436.000
CUBEBUG 1 25 Jun 00:53:08 00:55:30 14° 269° (W) 00:57:54 437.445
NANOSAT C BR1 25 Jun 01:13:21 01:17:00 29° 291° (WNW) 01:20:38 145.865
QB50P1 25 Jun 01:13:52 01:17:27 27° 292° (WNW) 01:21:03 145.935-145.965
BUGSAT 1 25 Jun 01:14:07 01:18:08 61° 286° (WNW) 01:22:11 437.445
POPSAT HIP 1 25 Jun 01:16:42 01:20:13 26° 292° (WNW) 01:23:46 437.405
QB50P2 25 Jun 01:28:18 01:31:20 19° 295° (WNW) 01:34:22 145.880/145.840
POLYITAN 1 25 Jun 01:30:56 01:33:57 19° 295° (WNW) 01:36:57 437.675
DUCHIFAT 1 25 Jun 01:36:38 01:39:33 18° 295° (WNW) 01:42:27 145.980
Cosmos 2491 25 Jun 01:50:26 01:59:10 69° 281° (W) 02:07:56 435.465 / 435.565
PCSat 25 Jun 01:52:21 01:55:24 15° 104° (ESE) 01:58:27 145.827
Gurwin Techsat 1B 25 Jun 01:56:21 02:00:32 23° 93° (E) 02:04:41 435.225
SWISSCUBE 25 Jun 02:02:15 02:07:02 77° 75° (ENE) 02:11:52 437.505
TISAT 1 25 Jun 02:02:29 02:05:40 21° 266° (W) 02:08:52 437.305
SO-50 25 Jun 02:06:35 02:11:09 56° 241° (WSW) 02:15:35 436.795
JAS-2 25 Jun 02:07:19 02:13:05 55° 290° (WNW) 02:18:17 435.910
Oscar 19 25 Jun 02:12:47 02:17:55 72° 103° (ESE) 02:23:01 437.125/150
ITUPSAT 1 25 Jun 02:26:17 02:31:04 70° 257° (WSW) 02:35:53 437.325
ITAMSAT 1 25 Jun 02:27:27 02:30:33 16° 90° (E) 02:33:38 435.822/435.867
BEESAT 25 Jun 02:28:08 02:32:53 66° 258° (WSW) 02:37:40 436.000
Cosmos 2504 25 Jun 02:34:59 02:43:36 56° 270° (W) 02:51:57 435.465 / 435.565
O/OREOS (USA 219) 25 Jun 02:40:12 02:43:18 18° 101° (E) 02:46:23 437.305
YUBILEINY 25 Jun 02:40:45 02:46:06 18° 284° (WNW) 02:51:27 435.215
KKS-1 25 Jun 02:48:47 02:52:27 26° 67° (ENE) 02:56:06 437.445
AO-7 25 Jun 03:00:10 03:05:28 18° 89° (E) 03:10:45 29.400- 29.500
BEESAT 3 25 Jun 03:13:44 03:17:14 32° 116° (ESE) 03:20:46 437.485
STARS 25 Jun 03:31:58 03:35:57 36° 70° (ENE) 03:39:57 437.465
PCSat 25 Jun 03:32:41 03:38:06 77° 302° (WNW) 03:43:34 145.827
Gurwin Techsat 1B 25 Jun 03:35:36 03:40:43 48° 290° (WNW) 03:45:48 435.225
BEESAT 2 25 Jun 03:43:06 03:46:44 36° 117° (ESE) 03:50:26 435.950
SWISSCUBE 25 Jun 03:43:40 03:45:24 12° 271° (W) 03:47:08 437.505
MOZHAYETS 4 25 Jun 03:44:17 03:48:53 82° 78° (ENE) 03:53:34
Cosmos 2491 25 Jun 03:53:20 03:57:54 15° 304° (NW) 04:02:28 435.465 / 435.565
Oscar 19 25 Jun 03:53:37 03:56:38 16° 300° (WNW) 03:59:40 437.125/150
ITAMSAT 1 25 Jun 04:05:17 04:10:30 68° 287° (WNW) 04:15:41 435.822/435.867
O/OREOS (USA 219) 25 Jun 04:18:01 04:22:20 45° 298° (WNW) 04:26:40 437.305
KKS-1 25 Jun 04:24:57 04:28:53 31° 263° (W) 04:32:51 437.445
AIST 1 25 Jun 04:27:24 04:31:34 52° 79° (ENE) 04:35:43
GONETS M04 25 Jun 04:42:38 04:49:47 27° 65° (ENE) 04:56:55
AO-7 25 Jun 04:50:54 04:59:21 86° 108° (ESE) 05:07:45 29.400- 29.500
BEESAT 3 25 Jun 04:51:36 04:54:56 26° 314° (NW) 04:58:18 437.485
CUBESAT XI-V 25 Jun 05:00:39 05:05:18 62° 73° (ENE) 05:09:57 437.345
STARS 25 Jun 05:09:05 05:12:25 21° 266° (W) 05:15:46 437.465
PCSat 25 Jun 05:19:07 05:22:26 16° 322° (NW) 05:25:45 145.827
BEESAT 2 25 Jun 05:21:25 05:24:41 24° 315° (NW) 05:27:57 435.950
MOZHAYETS 4 25 Jun 05:26:01 05:26:39 10° 272° (W) 05:27:18
AIST 2 25 Jun 05:28:53 05:32:23 28° 114° (ESE) 05:35:55 435.215
Cosmos 2499 25 Jun 05:30:24 05:38:25 36° 69° (ENE) 05:46:02 435.465 / 435.565
HORYU 2 25 Jun 05:39:48 05:44:18 75° 104° (ESE) 05:48:47 437.375
Cubesat XI-IV 25 Jun 05:42:35 05:44:44 12° 88° (E) 05:46:52 437.490
LilacSat-2 25 Jun 05:51:08 05:51:18 10° 89° (E) 05:51:28 437.200
AO-85 25 Jun 05:57:25 06:00:50 20° 38° (NE) 06:04:02 145.980
BRITE-PL 25 Jun 06:00:02 06:03:07 20° 93° (E) 06:06:10 437.365/2234.400
AIST 1 25 Jun 06:06:39 06:08:40 13° 276° (W) 06:10:41
CUTE-I 25 Jun 06:16:24 06:20:54 26° 94° (E) 06:25:22 437.470
STRAND 1 25 Jun 06:21:07 06:25:43 34° 67° (ENE) 06:30:20 437.568
GONETS M04 25 Jun 06:38:44 06:47:22 70° 267° (W) 06:56:02
DOVE 4 25 Jun 06:38:53 06:39:49 11° 90° (E) 06:40:46 437.250
CUBESAT XI-V 25 Jun 06:40:31 06:43:05 14° 270° (W) 06:45:39 437.345
NOAA 18 25 Jun 06:41:53 06:47:15 47° 100° (E) 06:52:35 137.9125
AO-7 25 Jun 06:44:51 06:51:10 25° 309° (NW) 06:57:29 29.400- 29.500
GOMX 1 25 Jun 06:53:41 06:57:29 34° 97° (E) 07:01:23 467.674
NOAA 15 25 Jun 06:57:28 07:02:45 83° 104° (ESE) 07:08:00 137.62
AIST 2 25 Jun 07:07:05 07:10:47 31° 312° (NW) 07:14:31 435.215
HORYU 2 25 Jun 07:18:19 07:20:15 13° 300° (WNW) 07:22:11 437.375
DANDE 25 Jun 07:19:28 07:25:42 24° 84° (E) 07:31:47 436.750
Cubesat XI-IV 25 Jun 07:20:04 07:25:29 86° 285° (WNW) 07:30:52 437.490
LilacSat-2 25 Jun 07:22:09 07:26:00 61° 285° (WNW) 07:29:49 437.200
Cosmos 2499 25 Jun 07:23:21 07:31:53 55° 270° (W) 07:40:00 435.465 / 435.565
CUSAT 1 25 Jun 07:32:32 07:40:08 51° 94° (E) 07:46:50 437.405
AO-85 25 Jun 07:37:17 07:41:48 64° 240° (WSW) 07:45:54 145.980
BRITE-PL 25 Jun 07:37:59 07:41:45 33° 290° (WNW) 07:45:29 437.365/2234.400
CUTE-I 25 Jun 07:56:01 08:01:05 43° 291° (WNW) 08:06:07 437.470
STRAND 1 25 Jun 08:00:21 08:04:52 31° 264° (W) 08:09:26 437.568
CINEMA 3 25 Jun 08:01:16 08:05:03 26° 95° (E) 08:08:57 145.822/145.860
DOVE 4 25 Jun 08:13:44 08:17:57 70° 285° (WNW) 08:22:22 437.250
PRISM 25 Jun 08:13:49 08:17:58 69° 73° (ENE) 08:22:07 437.425
AAUSAT CUBESAT 2 25 Jun 08:14:53 08:16:31 12° 89° (E) 08:18:10 437.432
NOAA 18 25 Jun 08:23:06 08:27:37 26° 297° (WNW) 08:32:08 137.9125
CANX-2 25 Jun 08:25:51 08:30:01 46° 99° (E) 08:34:08 2200.000
CUBEBUG 2 25 Jun 08:25:54 08:28:40 16° 91° (E) 08:31:27 437.445
HO-68 25 Jun 08:27:45 08:34:41 48° 100° (E) 08:41:35 435.675
GOMX 1 25 Jun 08:32:18 08:35:26 21° 293° (WNW) 08:38:37 467.674
NOAA 15 25 Jun 08:39:03 08:41:49 15° 302° (WNW) 08:44:37 137.62
GONETS M04 25 Jun 08:39:03 08:42:28 13° 287° (WNW) 08:45:53
COMPASS 1 25 Jun 08:43:17 08:47:03 31° 96° (E) 08:50:47 437.405
CUTE 1.7 + AOD 2 25 Jun 08:46:34 08:50:52 69° 102° (ESE) 08:55:07 437.475
SEEDS 25 Jun 08:57:48 09:02:03 66° 101° (E) 09:06:14 437.485
DANDE 25 Jun 08:59:24 09:07:49 82° 280° (W) 09:15:53 436.750
Cubesat XI-IV 25 Jun 09:02:15 09:04:45 13° 303° (WNW) 09:07:13 437.490
M-CUBED/EXP-1 PRIME 25 Jun 09:02:54 09:05:48 21° 101° (E) 09:08:52 437.505
ZACube-1 25 Jun 09:09:03 09:12:25 20° 93° (E) 09:15:47 437.345
CUSAT 1 25 Jun 09:15:15 09:22:21 36° 288° (WNW) 09:28:36 437.405
PHONESAT 2.4 25 Jun 09:15:47 09:18:35 32° 164° (SSE) 09:21:23 2401.200-2431.200
UWE-3 25 Jun 09:20:29 09:24:45 39° 97° (E) 09:29:06 435.000/436.395/437.385
TIGRISAT 25 Jun 09:24:43 09:28:12 25° 67° (ENE) 09:31:44 435.000
Oscar 11 25 Jun 09:26:18 09:30:11 31° 96° (E) 09:34:02 145.826/435.025
UNISAT 6 25 Jun 09:28:17 09:31:57 28° 68° (ENE) 09:35:41 437.425
FUNcube-1 25 Jun 09:28:22 09:32:20 30° 96° (E) 09:36:20 145.935
ISS 25 Jun 09:38:15 09:40:58 24° 136° (SE) 09:43:42 145.825
CINEMA 3 25 Jun 09:38:15 09:42:12 32° 290° (WNW) 09:46:16 145.822/145.860
AAUSAT CUBESAT 2 25 Jun 09:48:16 09:52:24 59° 286° (WNW) 09:56:29 437.432
PRISM 25 Jun 09:52:59 09:53:43 10° 270° (W) 09:54:27 437.425
AUBIESAT-1 25 Jun 10:00:41 10:04:30 80° 110° (ESE) 10:08:36 437.475
CUBEBUG 2 25 Jun 10:01:07 10:05:34 55° 287° (WNW) 10:10:07 437.445
CANX-2 25 Jun 10:02:40 10:05:31 17° 296° (WNW) 10:08:20 2200.000
Cosmos 2491 25 Jun 10:05:28 10:09:21 13° 54° (NE) 10:13:13 435.465 / 435.565
ANTELSAT 25 Jun 10:07:31 10:11:48 74° 74° (ENE) 10:16:10 437.575/2403.000
HO-68 25 Jun 10:15:48 10:22:12 36° 298° (WNW) 10:28:36 435.675
COMPASS 1 25 Jun 10:19:07 10:22:28 23° 293° (WNW) 10:25:47 437.405
CUTE 1.7 + AOD 2 25 Jun 10:24:21 10:26:08 12° 298° (WNW) 10:27:54 437.475
NANOSAT C BR1 25 Jun 10:31:07 10:34:21 22° 66° (ENE) 10:37:36 145.865
QB50P1 25 Jun 10:31:43 10:35:03 24° 67° (ENE) 10:38:24 145.935-145.965
DELFI C3 25 Jun 10:32:07 10:36:09 77° 102° (ESE) 10:40:07 145.870
POPSAT HIP 1 25 Jun 10:34:28 10:37:53 25° 67° (ENE) 10:41:18 437.405
SEEDS 25 Jun 10:35:20 10:37:11 13° 298° (WNW) 10:39:02 437.485
JAS-2 25 Jun 10:37:01 10:41:13 16° 55° (NE) 10:45:13 435.910
M-CUBED/EXP-1 PRIME 25 Jun 10:37:02 10:40:22 32° 294° (WNW) 10:43:57 437.505
PCSat 25 Jun 10:37:06 10:41:04 20° 41° (NE) 10:45:00 145.827
ZACube-1 25 Jun 10:44:36 10:48:51 42° 289° (WNW) 10:53:08 437.345
QB50P2 25 Jun 10:45:20 10:49:07 34° 70° (ENE) 10:52:56 145.880/145.840
DANDE 25 Jun 10:45:52 10:51:42 20° 298° (WNW) 10:57:18 436.750
POLYITAN 1 25 Jun 10:47:56 10:51:44 35° 70° (ENE) 10:55:33 437.675
PHONESAT 2.4 25 Jun 10:51:57 10:54:57 52° 181° (S) 10:57:59 2401.200-2431.200
DUCHIFAT 1 25 Jun 10:52:56 10:56:43 35° 70° (ENE) 11:00:31 145.980
HUMSAT D 25 Jun 10:55:08 10:59:26 63° 101° (E) 11:03:42 437.325/437.525
UWE-3 25 Jun 10:57:28 11:00:59 23° 294° (WNW) 11:04:34 435.000/436.395/437.385
TIGRISAT 25 Jun 11:00:58 11:04:46 31° 264° (W) 11:08:39 435.000
Oscar 11 25 Jun 11:02:36 11:06:12 26° 293° (WNW) 11:09:47 145.826/435.025
FUNcube-1 25 Jun 11:04:39 11:08:29 28° 292° (WNW) 11:12:23 145.935
UNISAT 6 25 Jun 11:05:00 11:08:38 27° 265° (W) 11:12:21 437.425
ISS 25 Jun 11:14:06 11:17:16 46° 333° (NNW) 11:20:26 145.825
ESTCUBE 1 25 Jun 11:21:10 11:24:40 22° 94° (E) 11:28:08 437.505/2401.250
RS-15 25 Jun 11:22:39 11:32:25 35° 105° (ESE) 11:42:36 29.354- 29.394
BEESAT 3 25 Jun 11:29:52 11:33:20 28° 47° (NE) 11:36:47 437.485
AUBIESAT-1 25 Jun 11:38:16 11:38:31 10° 303° (WNW) 11:38:47 437.475
AISAT 25 Jun 11:40:59 11:44:27 22° 94° (E) 11:47:53 437.250
ANTELSAT 25 Jun 11:48:47 11:49:04 10° 272° (W) 11:49:20 437.575/2403.000
YUBILEINY 25 Jun 11:50:04 11:56:18 23° 79° (ENE) 12:02:34 435.215
Oscar 19 25 Jun 11:53:54 11:56:58 16° 60° (ENE) 12:00:04 437.125/150
Cosmos 2491 25 Jun 11:59:34 12:08:14 64° 78° (ENE) 12:16:51 435.465 / 435.565
BEESAT 2 25 Jun 12:00:04 12:03:42 32° 48° (NE) 12:07:19 435.950
UKube-1 25 Jun 12:01:50 12:05:12 22° 94° (E) 12:08:33 .
BUGSAT 1 25 Jun 12:04:27 12:08:28 80° 257° (WSW) 12:12:30 437.445
NANOSAT C BR1 25 Jun 12:06:07 12:09:54 33° 263° (W) 12:13:43 145.865
QB50P1 25 Jun 12:06:59 12:10:42 31° 264° (W) 12:14:27 145.935-145.965
POPSAT HIP 1 25 Jun 12:09:54 12:13:33 29° 264° (W) 12:17:15 437.405
SPROUT 25 Jun 12:10:48 12:13:57 20° 93° (E) 12:17:04 437.525
50 SAT 25 Jun 12:11:37 12:15:14 50° 100° (E) 12:18:50 437.505
DX 1 25 Jun 12:14:06 12:18:08 37° 98° (E) 12:22:08 434.975-435.025
JAS-2 25 Jun 12:17:30 12:25:13 73° 73° (ENE) 12:32:19 435.910
PCSat 25 Jun 12:19:39 12:25:06 80° 242° (WSW) 12:30:30 145.827
QB50P2 25 Jun 12:21:49 12:25:00 21° 266° (W) 12:28:13 145.880/145.840
POLYITAN 1 25 Jun 12:24:30 12:27:39 20° 267° (W) 12:30:48 437.675
PHONESAT 2.4 25 Jun 12:28:34 12:31:20 30° 197° (SSW) 12:34:06 2401.200-2431.200
DUCHIFAT 1 25 Jun 12:29:23 12:32:30 20° 266° (W) 12:35:38 145.980
HUMSAT D 25 Jun 12:32:23 12:34:32 14° 298° (WNW) 12:36:41 437.325/437.525
VELOX 1 25 Jun 12:36:16 12:40:42 84° 106° (ESE) 12:45:05 145.980
CUBEBUG 1 25 Jun 12:38:13 12:42:33 84° 285° (WNW) 12:46:52 437.445
O/OREOS (USA 219) 25 Jun 12:47:39 12:51:55 42° 62° (ENE) 12:56:11 437.305
ISS 25 Jun 12:51:50 12:54:17 19° 353° (N) 12:56:44 145.825
ESTCUBE 1 25 Jun 12:57:25 13:01:35 37° 290° (WNW) 13:05:43 437.505/2401.250
BEESAT 3 25 Jun 13:07:32 13:10:59 29° 245° (WSW) 13:14:24 437.485
AISAT 25 Jun 13:17:01 13:21:00 35° 291° (WNW) 13:24:58 437.250
Gurwin Techsat 1B 25 Jun 13:18:08 13:23:03 40° 68° (ENE) 13:28:00 435.225
Cosmos 2504 25 Jun 13:22:17 13:28:39 26° 80° (E) 13:35:20 435.465 / 435.565
Oscar 19 25 Jun 13:30:33 13:35:42 72° 257° (WSW) 13:40:52 437.125/150
RS-15 25 Jun 13:32:27 13:43:54 72° 308° (NW) 13:56:04 29.354- 29.394
UKube-1 25 Jun 13:37:25 13:41:19 34° 291° (WNW) 13:45:13 .
BEESAT 2 25 Jun 13:38:07 13:41:25 25° 246° (WSW) 13:44:43 435.950
YUBILEINY 25 Jun 13:43:21 13:52:03 79° 279° (W) 14:00:53 435.215
TISAT 1 25 Jun 13:44:06 13:48:13 52° 100° (E) 13:52:19 437.305
ITAMSAT 1 25 Jun 13:45:52 13:50:13 28° 65° (ENE) 13:54:35 435.822/435.867
SPROUT 25 Jun 13:46:03 13:50:01 38° 290° (WNW) 13:53:59 437.525
50 SAT 25 Jun 13:46:56 13:48:30 12° 297° (WNW) 13:50:02 437.505
AIST 2 25 Jun 13:48:53 13:52:29 28° 46° (NE) 13:56:05 435.215
DX 1 25 Jun 13:50:48 13:54:06 22° 295° (WNW) 13:57:23 434.975-435.025
Cosmos 2491 25 Jun 13:57:22 14:04:23 29° 278° (W) 14:11:26 435.465 / 435.565
AO-7 25 Jun 13:59:56 14:06:53 31° 55° (NE) 14:13:52 29.400- 29.500
SWISSCUBE 25 Jun 14:02:30 14:05:48 18° 92° (E) 14:09:04 437.505
JAS-2 25 Jun 14:04:41 14:10:38 24° 268° (W) 14:16:20 435.910
PCSat 25 Jun 14:06:34 14:07:34 10° 259° (W) 14:08:35 145.827
VELOX 1 25 Jun 14:15:21 14:16:29 11° 301° (WNW) 14:17:38 145.980
ITUPSAT 1 25 Jun 14:26:11 14:30:18 28° 95° (E) 14:34:23 437.325
BEESAT 25 Jun 14:27:34 14:31:44 29° 96° (E) 14:35:52 436.000
O/OREOS (USA 219) 25 Jun 14:27:48 14:31:00 20° 259° (W) 14:34:13 437.305
ISS 25 Jun 14:28:54 14:31:32 22° 13° (NNE) 14:34:11 145.825
Gurwin Techsat 1B 25 Jun 14:58:37 15:03:06 27° 265° (W) 15:07:37 435.225
Cosmos 2504 25 Jun 15:13:14 15:21:12 67° 282° (WNW) 15:29:49 435.465 / 435.565
TISAT 1 25 Jun 15:21:00 15:23:27 15° 297° (WNW) 15:25:54 437.305
ITAMSAT 1 25 Jun 15:24:37 15:29:30 40° 262° (W) 15:34:25 435.822/435.867
AIST 2 25 Jun 15:27:15 15:31:00 33° 244° (WSW) 15:34:44 435.215
SWISSCUBE 25 Jun 15:39:13 15:43:52 51° 289° (WNW) 15:48:30 437.505
MOZHAYETS 4 25 Jun 15:39:19 15:42:32 18° 92° (E) 15:45:43
YUBILEINY 25 Jun 15:45:08 15:50:29 17° 302° (WNW) 15:55:53 435.215
RS-15 25 Jun 15:48:53 15:59:00 31° 338° (NNW) 16:09:31 29.354- 29.394
AO-7 25 Jun 15:50:46 15:59:03 68° 255° (WSW) 16:07:25 29.400- 29.500
ITUPSAT 1 25 Jun 16:03:50 16:08:09 34° 292° (WNW) 16:12:27 437.325
ISS 25 Jun 16:05:06 16:08:23 79° 32° (NNE) 16:11:38 145.825
BEESAT 25 Jun 16:05:15 16:09:30 32° 293° (WNW) 16:13:43 436.000
KKS-1 25 Jun 16:14:16 16:18:31 43° 99° (E) 16:22:45 437.445
SO-50 25 Jun 16:21:12 16:25:43 38° 116° (ESE) 16:30:14 436.795
NOAA 18 25 Jun 16:31:44 16:34:48 15° 57° (ENE) 16:37:51 137.9125
HORYU 2 25 Jun 16:38:28 16:42:53 78° 75° (ENE) 16:47:21 437.375
NOAA 15 25 Jun 16:40:39 16:44:30 21° 62° (ENE) 16:48:21 137.62
STARS 25 Jun 16:56:03 17:00:25 62° 102° (ESE) 17:04:47 437.465
CUBESAT XI-V 25 Jun 16:57:49 17:00:17 14° 90° (E) 17:02:44 437.345
AIST 1 25 Jun 16:57:52 17:01:37 29° 90° (E) 17:05:22
Cubesat XI-IV 25 Jun 17:04:34 17:08:46 24° 63° (ENE) 17:13:00 437.490
BRITE-PL 25 Jun 17:10:58 17:15:28 32° 69° (ENE) 17:19:40 437.365/2234.400
Cosmos 2504 25 Jun 17:12:22 17:16:34 14° 305° (NW) 17:20:54 435.465 / 435.565
MOZHAYETS 4 25 Jun 17:15:28 17:19:57 48° 288° (WNW) 17:24:23
CUTE-I 25 Jun 17:38:58 17:44:03 47° 69° (ENE) 17:49:11 437.470
ISS 25 Jun 17:42:44 17:44:25 13° 228° (SW) 17:46:05 145.825
DOVE 4 25 Jun 17:45:17 17:47:18 13° 63° (ENE) 17:49:18 437.250
GONETS M04 25 Jun 17:45:53 17:52:59 29° 82° (E) 18:00:04
AO-7 25 Jun 17:50:10 17:53:19 12° 274° (W) 17:56:30 29.400- 29.500
KKS-1 25 Jun 17:51:36 17:54:47 20° 296° (WNW) 17:57:58 437.445
DANDE 25 Jun 18:01:15 18:02:34 11° 53° (NE) 18:03:49 436.750
SO-50 25 Jun 18:01:53 18:06:16 32° 314° (NW) 18:10:39 436.795
GOMX 1 25 Jun 18:02:30 18:06:58 44° 72° (ENE) 18:11:10 467.674
LilacSat-2 25 Jun 18:04:44 18:08:28 72° 76° (ENE) 18:12:16 437.200
RS-15 25 Jun 18:06:43 18:16:40 28° 13° (NNE) 18:26:46 29.354- 29.394
Cosmos 2499 25 Jun 18:08:45 18:15:16 27° 80° (E) 18:22:05 435.465 / 435.565
NOAA 18 25 Jun 18:09:15 18:14:43 85° 255° (WSW) 18:20:14 137.9125
CUSAT 1 25 Jun 18:09:30 18:12:37 20° 65° (ENE) 18:15:14 437.405
NOAA 15 25 Jun 18:18:39 18:23:51 57° 259° (W) 18:29:05 137.62
HORYU 2 25 Jun 18:19:31 18:19:59 10° 271° (W) 18:20:27 437.375
CUBESAT XI-V 25 Jun 18:33:29 18:38:04 61° 286° (WNW) 18:42:36 437.345
STARS 25 Jun 18:33:56 18:36:17 14° 298° (WNW) 18:38:37 437.465
AIST 1 25 Jun 18:35:41 18:39:12 24° 287° (WNW) 18:42:45
Cubesat XI-IV 25 Jun 18:43:23 18:48:32 49° 261° (W) 18:53:44 437.490
BRITE-PL 25 Jun 18:49:19 18:53:53 31° 264° (W) 18:58:12 437.365/2234.400
HO-68 25 Jun 18:57:26 19:03:57 40° 63° (ENE) 19:10:30 435.675
CINEMA 3 25 Jun 19:04:28 19:07:51 25° 68° (ENE) 19:11:15 145.822/145.860
AAUSAT CUBESAT 2 25 Jun 19:07:39 19:08:14 10° 60° (ENE) 19:08:48 437.432
CANX-2 25 Jun 19:19:24 19:23:20 37° 70° (ENE) 19:27:18 2200.000
CUTE-I 25 Jun 19:20:05 19:24:19 24° 267° (W) 19:28:35 437.470
DOVE 4 25 Jun 19:20:12 19:24:35 62° 259° (W) 19:28:47 437.250
CUBEBUG 2 25 Jun 19:26:02 19:28:08 14° 62° (ENE) 19:30:15 437.445
COMPASS 1 25 Jun 19:35:04 19:38:31 25° 68° (ENE) 19:41:59 437.405
CUTE 1.7 + AOD 2 25 Jun 19:39:48 19:43:58 54° 73° (ENE) 19:48:10 437.475
GONETS M04 25 Jun 19:40:33 19:49:09 63° 282° (WNW) 19:57:48
DANDE 25 Jun 19:41:17 19:46:54 88° 79° (E) 19:50:59 436.750
GOMX 1 25 Jun 19:41:53 19:45:13 19° 267° (W) 19:48:26 467.674
SEEDS 25 Jun 19:50:06 19:54:12 50° 73° (ENE) 19:58:21 437.485
M-CUBED/EXP-1 PRIME 25 Jun 19:51:01 19:53:48 26° 65° (ENE) 19:56:34 437.505
CUSAT 1 25 Jun 19:51:33 19:54:40 22° 274° (W) 19:57:15 437.405
NOAA 18 25 Jun 19:54:45 19:56:10 11° 272° (W) 19:57:34 137.9125
Cosmos 2499 25 Jun 19:59:22 20:07:32 69° 281° (W) 20:16:20 435.465 / 435.565
ZACube-1 25 Jun 20:06:31 20:09:17 17° 64° (ENE) 20:12:03 437.345
STRAND 1 25 Jun 20:08:59 20:14:10 83° 103° (ESE) 20:19:20 437.568
UWE-3 25 Jun 20:18:41 20:22:25 33° 70° (ENE) 20:26:14 435.000/436.395/437.385
RS-15 25 Jun 20:20:43 20:32:47 56° 44° (NE) 20:44:48 29.354- 29.394
Oscar 11 25 Jun 20:22:01 20:25:41 27° 68° (ENE) 20:29:22 145.826/435.025
FUNcube-1 25 Jun 20:25:12 20:28:37 25° 67° (ENE) 20:32:05 145.935
AAUSAT CUBESAT 2 25 Jun 20:38:51 20:43:03 82° 258° (WSW) 20:47:17 437.432
CINEMA 3 25 Jun 20:41:21 20:44:56 28° 264° (W) 20:48:32 145.822/145.860
HO-68 25 Jun 20:44:53 20:51:36 43° 262° (W) 20:58:22 435.675
AUBIESAT-1 25 Jun 20:48:28 20:51:45 63° 253° (WSW) 20:55:03 437.475
CANX-2 25 Jun 20:56:07 20:59:18 20° 267° (W) 21:02:30 2200.000
CUBEBUG 2 25 Jun 21:00:12 21:04:16 57° 260° (W) 21:08:27 437.445
COMPASS 1 25 Jun 21:10:16 21:13:58 29° 264° (W) 21:17:41 437.405
CUTE 1.7 + AOD 2 25 Jun 21:17:53 21:20:09 14° 270° (W) 21:22:24 437.475
DELFI C3 25 Jun 21:18:38 21:22:31 49° 73° (ENE) 21:26:26 145.870
M-CUBED/EXP-1 PRIME 25 Jun 21:26:17 21:28:26 16° 260° (W) 21:30:35 437.505
SEEDS 25 Jun 21:27:47 21:30:12 15° 270° (W) 21:32:37 437.485
PRISM 25 Jun 21:29:35 21:33:42 83° 286° (WNW) 21:37:46 437.425
ZACube-1 25 Jun 21:41:12 21:45:12 45° 262° (W) 21:49:18 437.345
GONETS M04 25 Jun 21:44:22 21:48:03 13° 306° (NW) 21:51:45
HUMSAT D 25 Jun 21:47:08 21:51:07 47° 72° (ENE) 21:55:11 437.325/437.525
STRAND 1 25 Jun 21:49:59 21:52:39 14° 302° (WNW) 21:55:17 437.568
AO-85 25 Jun 21:51:18 21:56:16 37° 115° (ESE) 22:01:07 145.980
UWE-3 25 Jun 21:55:46 21:58:58 21° 267° (W) 22:02:14 435.000/436.395/437.385
Oscar 11 25 Jun 21:57:59 22:01:44 28° 264° (W) 22:05:32 145.826/435.025
Cosmos 2499 25 Jun 21:58:00 22:02:36 15° 305° (NW) 22:07:20 435.465 / 435.565
YUBILEINY 25 Jun 21:59:09 22:01:50 11° 52° (NE) 22:04:31 435.215
ANTELSAT 25 Jun 21:59:13 22:01:59 15° 91° (E) 22:04:44 437.575/2403.000
FUNcube-1 25 Jun 22:01:06 22:04:45 29° 265° (W) 22:08:30 145.935
ESTCUBE 1 25 Jun 22:21:39 22:25:15 24° 66° (ENE) 22:28:52 437.505/2401.250
RS-15 25 Jun 22:33:38 22:45:22 54° 249° (WSW) 22:56:59 29.354- 29.394
AISAT 25 Jun 22:39:23 22:42:53 24° 66° (ENE) 22:46:23 437.250
TIGRISAT 25 Jun 22:50:30 22:54:59 48° 99° (E) 22:59:31 435.000
50 SAT 25 Jun 22:50:34 22:53:44 27° 69° (ENE) 22:56:54 437.505
UNISAT 6 25 Jun 22:54:29 22:59:02 56° 100° (E) 23:03:38 437.425
DELFI C3 25 Jun 22:55:34 22:57:39 14° 269° (W) 22:59:46 145.870
UKube-1 25 Jun 22:57:26 23:00:46 22° 65° (ENE) 23:04:06 .
SPROUT 25 Jun 23:05:46 23:08:37 18° 65° (ENE) 23:11:30 437.525
DX 1 25 Jun 23:10:24 23:14:24 36° 69° (ENE) 23:18:24 434.975-435.025
Cosmos 2491 25 Jun 23:11:16 23:14:57 13° 73° (ENE) 23:18:38 435.465 / 435.565
SO-50 25 Jun 23:13:32 23:14:25 10° 27° (NNE) 23:15:20 436.795
Cosmos 2504 25 Jun 23:14:58 23:17:15 11° 51° (NE) 23:19:33 435.465 / 435.565
HUMSAT D 25 Jun 23:24:37 23:27:02 15° 269° (W) 23:29:28 437.325/437.525
AO-85 25 Jun 23:31:46 23:36:47 38° 312° (NW) 23:41:38 145.980
VELOX 1 25 Jun 23:34:10 23:38:35 83° 75° (ENE) 23:43:01 145.980
ANTELSAT 25 Jun 23:34:29 23:39:01 57° 287° (WNW) 23:43:36 437.575/2403.000
CUBEBUG 1 25 Jun 23:34:42 23:39:05 89° 77° (ENE) 23:43:27 437.445
BUGSAT 1 25 Jun 23:46:43 23:48:42 13° 91° (E) 23:50:41 437.445
NANOSAT C BR1 25 Jun 23:49:09 23:53:01 34° 97° (E) 23:56:53 145.865
QB50P1 25 Jun 23:50:11 23:54:08 36° 98° (E) 23:58:05 145.935-145.965
YUBILEINY 25 Jun 23:52:19 00:00:59 56° 76° (ENE) 00:09:37 435.215
POPSAT HIP 1 25 Jun 23:53:03 23:57:03 39° 98° (E) 00:01:02 437.405
ESTCUBE 1 25 Jun 23:57:40 00:01:52 36° 263° (W) 00:06:05 437.505/2401.250
QB50P2 26 Jun 00:04:24 00:08:36 56° 100° (E) 00:12:48 145.880/145.840
POLYITAN 1 26 Jun 00:07:01 00:11:14 58° 101° (E) 00:15:27 437.675
DUCHIFAT 1 26 Jun 00:11:06 00:15:17 56° 101° (E) 00:19:26 145.980
AISAT 26 Jun 00:15:09 00:19:11 34° 263° (W) 00:23:13 437.250
50 SAT 26 Jun 00:24:32 00:27:24 21° 266° (W) 00:30:18 437.505
TIGRISAT 26 Jun 00:28:04 00:31:19 19° 296° (WNW) 00:34:37 435.000
